Regional Weather Roundup
Issued by NWS

Home | Current Version | Previous Version | Graphics & Text | Print | Product List | Glossary On
Versions: 1 2 3 4 5 6 7 8 9 10 11 12 13 14 15 16 17 18 19 20 21 22 23 24 25 26 27
000
ASUS45 KTFX 260210
RWRMT
MONTANA REGIONAL WEATHER ROUNDUP
NATIONAL WEATHER SERVICE GREAT FALLS MT
800 PM MDT MON SEP 25 2017

NOTE: "FAIR" INDICATES FEW OR NO CLOUDS BELOW 12000 FEET WITH NO
SIGNIFICANT WEATHER AND/OR OBSTRUCTIONS TO VISIBILITY.

MTZ001>007-043-260300-
WEST OF THE DIVIDE

CITY           SKY/WX    TMP DP  RH WIND       PRES   REMARKS
KALISPELL      CLOUDY    53  48  83 SE7       30.05S
MISSOULA       CLOUDY    52  45  77 CALM      30.10S
BUTTE          LGT RAIN  46  41  82 CALM      30.12S
MULLAN PASS    CLOUDY    43  37  79 CALM      30.14S
ANACONDA         N/A     48  37  66 W6        30.10S
DEER LODGE       N/A     50  37  62 CALM      30.12S
EUREKA           N/A     59  43  55 MISG        N/A
HAMILTON         N/A     54  41  62 SE5       30.11S
LIBBY            N/A     59  43  55 CALM      30.02S
PLAINS           N/A     60  44  55 CALM      30.06R
RONAN            N/A     53  47  80 CALM      30.10F
$$

MTZ008-052>055-260300-
SOUTHWEST MONTANA

CITY           SKY/WX    TMP DP  RH WIND       PRES   REMARKS
BOZEMAN        CLOUDY    52  37  56 W7        30.08R
DILLON         LGT RAIN  47  37  68 E9        30.11R
W YELLOWSTONE  CLOUDY    41  28  60 SW9       30.14S
ENNIS          CLOUDY    48  32  53 SE5       30.14S
THREE FORKS      N/A     50  39  65 W3        30.06S
TWIN BRIDGES     N/A     48  37  65 CALM      30.09S
$$

MTZ009-010-012-014-046-048-049-054-260300-
EAST SLOPES AND CENTRAL MONTANA

CITY           SKY/WX    TMP DP  RH WIND       PRES   REMARKS
CUT BANK       CLOUDY    55  38  52 W8        30.00S
GREAT FALLS    CLOUDY    56  34  43 SE3       30.01S
MALMSTROM AFB  CLOUDY    55  33  44 E5        30.02R
HELENA         CLOUDY    55  40  56 W10       30.06S
BOWMANS CRNR   MOCLDY    50  41  69 S5        30.03R
CHOTEAU          N/A     55  36  47 NW6       30.04S
FAIRFIELD      MOCLDY    55  35  46 SE3       30.01S
POWER          MOCLDY    53  33  47 E6        30.01S
RAYNESFORD     CLOUDY    50  35  57 CALM      30.03S
ULM            MOCLDY    54  39  57 SW8       30.02R
$$

MTZ011-013-016-021-045-047-050-051-260300-
NORTH CENTRAL MONTANA

CITY           SKY/WX    TMP DP  RH WIND       PRES   REMARKS
HAVRE          CLOUDY    51  33  50 S7        29.99S
LEWISTOWN      CLEAR     49  32  52 SE5       30.04R
N BAR RANCH      N/A     41  34  75 W5        30.07R
CHINOOK          N/A     55  34  44 E6        30.00R
DENTON           N/A     51  32  48 E5        29.99S
GEYSER         MOCLDY    48  33  55 SE8       30.03R
JUDITH GAP       N/A     47  30  50 NW6       30.03S
WINIFRED         N/A     45  32  60 E8        30.02S
$$

MTZ017>020-022>027-061-062-260300-
NORTHEAST MONTANA

CITY           SKY/WX    TMP DP  RH WIND       PRES   REMARKS
GLASGOW        CLOUDY    50  38  63 E15       30.07R
JORDAN           N/A     47  40  76 SE9       30.07R
SIDNEY           N/A    N/A N/A N/A MISG        N/A
WOLF POINT     CLOUDY    49  41  74 CALM      30.11S
MALTA          CLEAR     50  37  62 SE8       30.04R
PLENTYWOOD       N/A     48  43  81 SE5       30.12S
POPLAR           N/A     46  43  87 SE3       30.12S
SCOBEY           N/A     49  36  61 SE6       30.08S
$$

MTZ028>42-056>058-260300-
SOUTHCENTRAL AND SOUTHEAST MONTANA

CITY           SKY/WX    TMP DP  RH WIND       PRES   REMARKS
BAKER          CLOUDY    46  39  76 SE3       30.10S
BILLINGS       CLOUDY    55  36  48 SW6       30.02S
LIVINGSTON     CLOUDY    48  31  51 W8        30.05S
MILES CITY     CLOUDY    43  41  93 NE3       30.09F
BIG TIMBER     CLOUDY    50  32  50 W12       30.06S
EKALAKA          N/A     41  38  89 CALM      30.06F
HARLOWTON        N/A     50  32  51 MISG      30.03R
LAUREL           N/A     54  37  54 SW8       30.03S
$$

REGIONAL REPORTS...DAKOTAS

CITY           SKY/WX    TMP DP  RH WIND       PRES   REMARKS
WILLISTON      CLOUDY    48  46  93 NE6       30.12F
MINOT          CLOUDY    51  44  77 E5        30.13S
DICKINSON      CLOUDY    45  44  97 E5        30.10R
BEACH          CLOUDY    43  43 100 E3        30.14S
CROSBY         CLOUDY    46  46 100 S7        30.14S
TIOGA          CLOUDY    46  46 100 CALM      30.14S
WATFORD CITY   CLOUDY    46  46 100 CALM      30.12S
BISMARCK       CLOUDY    49  44  83 NE5       30.13S
GRAND FORKS    CLOUDY    52  48  86 N8        30.11F
FARGO          CLOUDY    52  49  89 N9        30.07F
BUFFALO SD       N/A     48  43  82 S3        30.04R
RAPID CITY     CLOUDY    50  43  76 E8        30.10R
$$

REGIONAL REPORTS...WYOMING/IDAHO/WASHINGTON

CITY           SKY/WX    TMP DP  RH WIND       PRES   REMARKS
GILLETTE       MOCLDY    40  38  93 CALM      30.09R
SHERIDAN       CLOUDY    47  42  83 SW3       30.08S
BUFFALO WY     CLOUDY    45  38  76 SW5       30.11R
CODY           CLOUDY    47  38  71 S7        30.09S
IDAHO FALLS    CLOUDY    51  33  50 S7        30.13R
SALMON         CLOUDY    49  43  80 CALM      30.13S
BOISE          PTCLDY    62  36  37 W3        30.06S
SPOKANE        CLOUDY    62  46  55 W6        30.05R
$$

REGIONAL REPORTS...ALBERTA

CITY           SKY/WX    TMP DP  RH WIND       PRES   REMARKS
EDMONTON       CLEAR     55  48  76 CALM      29.90R
CALGARY        MOCLDY    63  37  39 S3        29.95R
MEDICINE HAT   CLOUDY    63  36  36 E2        29.94S
$$

REGIONAL REPORTS...SASKATCHEWAN

CITY           SKY/WX    TMP DP  RH WIND       PRES   REMARKS
SWIFT CURRENT  CLEAR     50  28  43 S12       29.98S
REGINA         MOCLDY    50  36  57 SE12      30.10R
SASKATOON      MOCLDY    57  36  44 SE13      30.00S
$$




USA.gov is the U.S. government's official web portal to all federal, state and local government web resources and services.